When you browse on this site, cookies collect data to enhance your experience and personalize the content and advertising you see.
Visit our Privacy Policy to learn more. By continuing to use the site, you agree to this use of cookies and data.
  • En España
  • Lista de países
  • Para 7 días
  • Temperatura del agua
  • El tiempo en el mapa
  • Informadores
  • user-avatar
    Iniciar sesión

    Tiempo cada hora Gloucester

    Hoy, 21 Septiembre, Sábado

    Tiempo Temperatura Precipitaciones Viento Presión Humedad
    00:00 +12°C° 0 mm 4 mps 756 mmHg 68%
    01:00 +12°C° 0 mm 4 mps 755 mmHg 70%
    02:00 +12°C° 0 mm 4 mps 755 mmHg 71%
    03:00 +11°C° 0 mm 4 mps 754 mmHg 72%
    04:00 +11°C° 0 mm 4 mps 754 mmHg 74%
    05:00 +11°C° 0 mm 4 mps 753 mmHg 76%
    06:00 +10°C° 0 mm 4 mps 753 mmHg 78%
    07:00 +12°C° 0 mm 4 mps 753 mmHg 74%
    08:00 +14°C° 0 mm 4 mps 753 mmHg 71%
    09:00 +15°C° 0 mm 5 mps 752 mmHg 67%
    10:00 +17°C° 0 mm 5 mps 752 mmHg 64%
    11:00 +20°C° 0 mm 5 mps 752 mmHg 62%
    12:00 +22°C° 0 mm 5 mps 751 mmHg 59%
    13:00 +22°C° 0 mm 5 mps 751 mmHg 60%
    14:00 +23°C° 0 mm 6 mps 750 mmHg 60%
    15:00 +23°C° 0 mm 6 mps 750 mmHg 61%
    16:00 +22°C° 0 mm 5 mps 749 mmHg 67%
    17:00 +21°C° 0 mm 4 mps 749 mmHg 73%
    18:00 +19°C° 0 mm 4 mps 749 mmHg 78%
    19:00 +19°C° 0.2 mm 4 mps 748 mmHg 79%
    20:00 +18°C° 0.2 mm 4 mps 748 mmHg 79%
    21:00 +18°C° 0.2 mm 4 mps 748 mmHg 79%
    22:00 +18°C° 0.7 mm 4 mps 748 mmHg 83%
    23:00 +18°C° 0.7 mm 4 mps 747 mmHg 86%

    Mañana, 22 Septiembre, Domingo

    Tiempo Temperatura Precipitaciones Viento Presión Humedad
    00:00 +18°C° 0.7 mm 3 mps 747 mmHg 89%
    01:00 +18°C° 0.3 mm 3 mps 746 mmHg 90%
    02:00 +18°C° 0.3 mm 3 mps 746 mmHg 91%
    03:00 +17°C° 0.3 mm 3 mps 745 mmHg 93%
    04:00 +17°C° 0 mm 3 mps 745 mmHg 93%
    05:00 +17°C° 0 mm 3 mps 745 mmHg 94%
    06:00 +17°C° 0 mm 3 mps 745 mmHg 95%
    07:00 +17°C° 1 mm 3 mps 745 mmHg 94%
    08:00 +17°C° 1 mm 4 mps 745 mmHg 92%
    09:00 +17°C° 1 mm 4 mps 745 mmHg 91%
    10:00 +15°C° 0.6 mm 4 mps 745 mmHg 91%
    11:00 +16°C° 0.6 mm 3 mps 745 mmHg 92%
    12:00 +14°C° 0.6 mm 3 mps 745 mmHg 92%
    13:00 +17°C° 0.2 mm 4 mps 745 mmHg 86%
    14:00 +17°C° 0.2 mm 5 mps 745 mmHg 79%
    15:00 +19°C° 0.2 mm 6 mps 745 mmHg 73%
    16:00 +17°C° 0.1 mm 5 mps 745 mmHg 78%
    17:00 +17°C° 0.1 mm 4 mps 745 mmHg 82%
    18:00 +16°C° 0.1 mm 3 mps 745 mmHg 87%
    19:00 +14°C° 0 mm 4 mps 745 mmHg 89%
    20:00 +13°C° 0 mm 4 mps 746 mmHg 91%
    21:00 +13°C° 0 mm 4 mps 746 mmHg 93%
    22:00 +13°C° 0 mm 5 mps 747 mmHg 92%
    23:00 +13°C° 0 mm 6 mps 747 mmHg 90%

    Pasado mañana, 23 Septiembre, Lunes

    Tiempo Temperatura Precipitaciones Viento Presión Humedad
    00:00 +12°C° 0 mm 7 mps 748 mmHg 89%
    01:00 +13°C° 0 mm 6 mps 748 mmHg 88%
    02:00 +12°C° 0 mm 5 mps 748 mmHg 88%
    03:00 +12°C° 0 mm 5 mps 749 mmHg 88%
    04:00 +11°C° 0 mm 4 mps 749 mmHg 90%
    05:00 +10°C° 0 mm 4 mps 749 mmHg 92%
    06:00 +10°C° 0 mm 3 mps 749 mmHg 94%
    07:00 +11°C° 0 mm 3 mps 749 mmHg 89%
    08:00 +13°C° 0 mm 4 mps 749 mmHg 85%
    09:00 +14°C° 0 mm 4 mps 749 mmHg 80%
    10:00 +15°C° 0.1 mm 5 mps 749 mmHg 76%
    11:00 +16°C° 0.1 mm 5 mps 749 mmHg 71%
    12:00 +17°C° 0.1 mm 6 mps 749 mmHg 67%
    13:00 +16°C° 1 mm 6 mps 748 mmHg 75%
    14:00 +15°C° 1 mm 6 mps 748 mmHg 83%
    15:00 +13°C° 1 mm 6 mps 747 mmHg 91%
    16:00 +14°C° 1 mm 6 mps 747 mmHg 92%
    17:00 +14°C° 1 mm 6 mps 746 mmHg 93%
    18:00 +15°C° 1 mm 6 mps 745 mmHg 94%
    19:00 +15°C° 0.1 mm 6 mps 745 mmHg 94%
    20:00 +16°C° 0.1 mm 5 mps 745 mmHg 95%
    21:00 +16°C° 0.1 mm 5 mps 745 mmHg 95%
    22:00 +16°C° 0.1 mm 5 mps 745 mmHg 95%
    23:00 +15°C° 0.1 mm 5 mps 745 mmHg 95%

    24 Septiembre, Martes

    Tiempo Temperatura Precipitaciones Viento Presión Humedad
    00:00 +15°C° 0.1 mm 5 mps 745 mmHg 95%
    01:00 +15°C° 0.1 mm 4 mps 745 mmHg 95%
    02:00 +15°C° 0.1 mm 4 mps 744 mmHg 95%
    03:00 +15°C° 0.1 mm 4 mps 744 mmHg 95%
    04:00 +14°C° 0.5 mm 3 mps 744 mmHg 96%
    05:00 +14°C° 0.5 mm 3 mps 743 mmHg 96%
    06:00 +14°C° 0.5 mm 3 mps 742 mmHg 97%
    07:00 +15°C° 2.7 mm 4 mps 742 mmHg 93%
    08:00 +15°C° 2.7 mm 5 mps 742 mmHg 89%
    09:00 +16°C° 2.7 mm 6 mps 742 mmHg 85%
    10:00 +16°C° 0.1 mm 6 mps 742 mmHg 80%
    11:00 +17°C° 0.1 mm 6 mps 742 mmHg 76%
    12:00 +17°C° 0.1 mm 7 mps 742 mmHg 71%
    13:00 +17°C° 0.4 mm 7 mps 742 mmHg 74%
    14:00 +16°C° 0.4 mm 7 mps 742 mmHg 77%
    15:00 +15°C° 0.4 mm 7 mps 741 mmHg 80%
    16:00 +15°C° 0.5 mm 7 mps 741 mmHg 83%
    17:00 +15°C° 0.5 mm 7 mps 740 mmHg 87%
    18:00 +14°C° 0.5 mm 7 mps 740 mmHg 90%
    19:00 +13°C° 0.1 mm 8 mps 740 mmHg 89%
    20:00 +13°C° 0.1 mm 8 mps 739 mmHg 88%
    21:00 +12°C° 0.1 mm 8 mps 739 mmHg 87%
    22:00 +12°C° 0.4 mm 9 mps 739 mmHg 87%
    23:00 +12°C° 0.4 mm 9 mps 739 mmHg 88%

    25 Septiembre, Miércoles

    Tiempo Temperatura Precipitaciones Viento Presión Humedad
    00:00 +13°C° 0.4 mm 10 mps 739 mmHg 88%
    01:00 +12°C° 0.2 mm 8 mps 739 mmHg 89%
    02:00 +12°C° 0.2 mm 7 mps 739 mmHg 89%
    03:00 +11°C° 0.2 mm 6 mps 739 mmHg 90%
    04:00 +12°C° 0.1 mm 5 mps 740 mmHg 90%
    05:00 +12°C° 0.1 mm 5 mps 740 mmHg 91%
    06:00 +12°C° 0.1 mm 5 mps 741 mmHg 91%
    07:00 +13°C° 0.3 mm 5 mps 741 mmHg 89%
    08:00 +13°C° 0.3 mm 6 mps 742 mmHg 87%
    09:00 +14°C° 0.3 mm 7 mps 742 mmHg 85%
    10:00 +15°C° 0.5 mm 7 mps 743 mmHg 82%
    11:00 +16°C° 0.5 mm 7 mps 743 mmHg 79%
    12:00 +16°C° 0.5 mm 8 mps 744 mmHg 76%
    13:00 +16°C° 0.2 mm 7 mps 743 mmHg 75%
    14:00 +16°C° 0.2 mm 7 mps 743 mmHg 75%
    15:00 +16°C° 0.2 mm 7 mps 743 mmHg 74%
    16:00 +15°C° 0 mm 5 mps 743 mmHg 80%
    17:00 +14°C° 0 mm 4 mps 743 mmHg 85%
    18:00 +13°C° 0 mm 3 mps 742 mmHg 91%
    19:00 +14°C° 0.1 mm 2 mps 742 mmHg 92%
    20:00 +14°C° 0.1 mm 2 mps 742 mmHg 94%
    21:00 +14°C° 0.1 mm 2 mps 742 mmHg 96%
    22:00 +14°C° 0.1 mm 3 mps 742 mmHg 96%
    23:00 +14°C° 0.1 mm 4 mps 741 mmHg 95%

    26 Septiembre, Jueves

    Tiempo Temperatura Precipitaciones Viento Presión Humedad
    00:00 +15°C° 0.1 mm 4 mps 741 mmHg 94%
    01:00 +15°C° 1.4 mm 5 mps 740 mmHg 94%
    02:00 +16°C° 1.4 mm 6 mps 740 mmHg 93%
    03:00 +16°C° 1.4 mm 7 mps 739 mmHg 93%
    04:00 +16°C° 0.3 mm 7 mps 739 mmHg 92%
    05:00 +15°C° 0.3 mm 7 mps 739 mmHg 91%
    06:00 +15°C° 0.3 mm 6 mps 739 mmHg 91%
    07:00 +15°C° 0.1 mm 7 mps 740 mmHg 88%
    08:00 +16°C° 0.1 mm 7 mps 740 mmHg 85%
    09:00 +16°C° 0.1 mm 8 mps 740 mmHg 82%
    10:00 +16°C° 0.3 mm 8 mps 740 mmHg 78%
    11:00 +16°C° 0.3 mm 8 mps 741 mmHg 75%
    12:00 +16°C° 0.3 mm 9 mps 741 mmHg 71%
    13:00 +16°C° 0.2 mm 9 mps 741 mmHg 72%
    14:00 +15°C° 0.2 mm 9 mps 741 mmHg 72%
    15:00 +15°C° 0.2 mm 9 mps 741 mmHg 73%
    16:00 +13°C° 0.1 mm 8 mps 741 mmHg 76%
    17:00 +14°C° 0.1 mm 7 mps 741 mmHg 78%
    18:00 +13°C° 0.1 mm 6 mps 741 mmHg 81%
    19:00 +11°C° 0.3 mm 6 mps 741 mmHg 83%
    20:00 +11°C° 0.3 mm 6 mps 741 mmHg 85%
    21:00 +11°C° 0.3 mm 7 mps 741 mmHg 87%
    22:00 +11°C° 0.1 mm 6 mps 741 mmHg 87%
    23:00 +10°C° 0.1 mm 6 mps 741 mmHg 87%
    Mostrar más